SID,Date,Time,pH,Iron,Mn,Color,Turbidity,Analyst
24593,01/01/2006,"1545      ",6.21,0.73,0.360,93,0.93,"RP                                                "
24594,01/03/2006,"1130      ",6.40,0.74,0.330,104,0.86,"DF                                                "
24595,01/04/2006,"1600      ",6.21,0.73,0.370,96,0.99,"JR                                                "
24596,01/05/2006,"825       ",6.13,0.71,0.370,86,0.87,"TL                                                "
24597,01/06/2006,"1740      ",6.17,0.70,0.390,85,0.86,"JR                                                "
24598,01/07/2006,"1420      ",6.22,0.77,0.380,107,0.98,"JF                                                "
24599,01/08/2006,"1410      ",6.16,0.74,0.420,85,0.99,"TCF                                               "
24600,01/09/2006,"1730      ",6.15,0.76,0.360,89,0.95,"DF                                                "
24601,01/10/2006,"1515      ",6.17,0.79,0.240,81,0.84,"JR                                                "
24602,01/11/2006,"1545      ",6.18,0.79,0.230,98,1.01,"JR                                                "
24603,01/12/2006,"1720      ",6.15,0.92,0.160,123,1.50,"JR                                                "
24604,01/13/2006,"1720      ",6.10,0.76,0.440,85,0.81,"SJV                                               "
24605,01/14/2006,"1515      ",6.20,0.83,0.460,87,0.93,"JF                                                "
24606,01/15/2006,"1715      ",6.08,0.79,0.350,94,0.94,"RP                                                "
24607,01/16/2006,"1800      ",6.12,0.78,0.270,93,0.99,"JR                                                "
24608,01/17/2006,"1505      ",6.23,0.76,0.310,81,0.97,"JR                                                "
24609,01/18/2006,"1540      ",6.12,0.72,0.450,79,0.90,"JR                                                "
24610,01/19/2006,"1450      ",6.09,1.33,0.350,146,2.41,"TCF                                               "
24611,01/20/2006,"1230      ",6.07,1.10,0.400,133,1.05,"DF                                                "
24612,01/21/2006,"1500      ",6.39,0.90,0.370,120,0.67,"DF                                                "
24613,01/22/2006,"1030      ",6.07,0.78,0.350,125,0.51,"TCF                                               "
24614,01/23/2006,"1735      ",6.12,0.77,0.240,112,0.60,"JR                                                "
24615,01/24/2006,"800       ",6.09,0.74,0.330,112,0.57,"DF                                                "
24616,01/25/2006,"1530      ",6.08,0.75,0.280,111,0.63,"JR                                                "
24617,01/26/2006,"1540      ",6.09,0.77,0.300,116,0.64,"JR                                                "
24618,01/27/2006,"1540      ",6.08,0.75,0.270,111,0.60,"JF                                                "
24619,01/28/2006,"1650      ",6.07,0.74,0.320,114,0.64,"JF                                                "
24620,01/29/2006,"1725      ",6.05,0.74,0.360,113,0.87,"RP                                                "
24621,01/30/2006,"1500      ",6.11,0.72,0.450,113,0.82,"JR                                                "
24622,01/31/2006,"830       ",6.14,0.70,0.370,112,0.84,"DF                                                "
24623,02/01/2006,"1600      ",6.09,0.76,0.370,107,1.04,"JR                                                "
24624,02/02/2006,"740       ",6.03,0.72,0.350,106,0.78,"TCF                                               "
24625,02/03/2006,"1315      ",6.00,0.73,0.300,109,0.83,"DF                                                "
24626,02/04/2006,"1445      ",6.04,0.71,0.360,108,0.77,"DF                                                "
24627,02/05/2006,"1630      ",6.05,0.69,0.380,101,0.82,"RP                                                "
24628,02/06/2006,"1230      ",6.06,0.67,0.350,100,0.73,"SC                                                "
24629,02/07/2006,"800       ",6.01,0.70,0.350,96,0.78,"DF                                                "
24630,02/08/2006,"1345      ",6.03,0.70,0.330,101,0.70,"TCF                                               "
24631,02/09/2006,"1525      ",6.20,0.75,0.410,99,0.74,"JR                                                "
24632,02/10/2006,"1455      ",6.01,0.76,0.400,99,0.81,"JF                                                "
24633,02/11/2006,"1900      ",6.10,0.71,0.440,97,0.87,"RP                                                "
24634,02/13/2006,"1525      ",6.07,0.73,0.520,101,0.82,"JR                                                "
24635,02/14/2006,"1030      ",6.01,0.73,0.500,100,0.88,"DF                                                "
24636,02/15/2006,"1455      ",6.07,0.73,0.310,106,0.88,"JR                                                "
24637,02/16/2006,"1535      ",6.07,0.69,0.440,109,0.80,"JR                                                "
24638,02/17/2006,"1530      ",6.05,0.71,0.430,108,0.82,"JR                                                "
24639,02/18/2006,"1500      ",6.08,0.70,0.390,106,0.80,"JF                                                "
24640,02/21/2006,"1230      ",6.15,0.75,0.400,109,0.95,"DF                                                "
24641,02/22/2006,"1205      ",6.05,0.74,0.390,101,0.84,"TCF                                               "
24642,02/23/2006,"1445      ",6.04,0.74,0.340,100,0.89, 
24643,02/24/2006,"915       ",6.29,0.68,0.040,102,0.85,"DF                                                "
24644,02/25/2006,"1600      ",6.04,0.74,0.370,98,0.88,"JF                                                "
24645,02/27/2006,"1720      ",6.04,0.67,0.270,112,0.82,"JR                                                "
24646,02/28/2006,"1100      ",6.04,0.70,0.390,102,0.85,"DF                                                "
24647,03/01/2006,"1530      ",6.00,0.68,0.240,99,0.84,"JR                                                "
24648,03/02/2006,"1615      ",6.00,0.66,0.300,95,0.89,"JR                                                "
24649,03/03/2006,"1000      ",6.04,0.69,0.410,95,0.85,"DF                                                "
24650,03/04/2006,"1340      ",6.05,0.70,0.470,93,1.10,"SBK                                               "
24651,03/05/2006,"1340      ",6.09,0.65,0.400,96,0.77,"TCF                                               "
24652,03/06/2006,"1545      ",6.06,0.62,0.230,95,1.06,"JR                                                "
24653,03/07/2006,"1130      ",6.02,0.66,0.380,84,0.92,"DF                                                "
24654,03/08/2006,"1630      ",6.07,0.62,0.190,78,0.78,"JR                                                "
24655,03/09/2006,"1505      ",6.08,0.68,0.130,103,1.25,"JR                                                "
24656,03/10/2006,"845       ",6.25,0.67,0.330,81,0.80,"DF                                                "
24657,03/11/2006,"1350      ",5.95,0.70,0.390,78,0.83,"JF                                                "
24658,03/12/2006,"1445      ",6.01,0.65,0.300,64,0.78,"TCF                                               "
24659,03/13/2006,"830       ",6.04,0.63,0.380,70,0.79,"TCF                                               "
24660,03/14/2006,"1130      ",6.05,0.70,0.250,66,0.81,"DF                                                "
24661,03/15/2006,"1130      ",6.01,0.66,0.260,77,0.74,"TCF                                               "
24662,03/16/2006,"1520      ",6.04,0.63,0.300,66,1.25,"JR                                                "
24663,03/17/2006,"1310      ",6.04,0.68,0.420,58,0.78,"DF                                                "
24664,03/18/2006,"1510      ",6.02,0.71,0.470,58,0.74,"JF                                                "
24665,03/19/2006,"1200      ",6.06,0.67,0.370,50,0.65,"TCF                                               "
24666,03/20/2006,"1545      ",6.11,0.67,0.380,52,0.74,"sbk                                               "
24667,03/21/2006,"1520      ",6.07,0.67,0.400,52,0.85,"JR                                                "
24668,03/22/2006,"1525      ",6.00,0.73,0.240,58,1.26,"JR                                                "
24669,03/23/2006,"1530      ",6.02,0.76,0.270,54,0.89,"JF                                                "
24670,03/24/2006,"1435      ",6.09,0.72,0.280,52,0.89,"SC                                                "
24671,03/25/2006,"1440      ",6.04,0.75,0.270,53,0.79,"JF                                                "
24672,03/26/2006,"1320      ",6.04,0.73,0.290,51,0.77,"TCF                                               "
24673,03/27/2006,"1350      ",6.03,0.73,0.280,52,0.75,"TCF                                               "
24674,03/28/2006,"800       ",6.11,0.71,0.460,50,0.70,"DF                                                "
24675,03/29/2006,"1535      ",6.10,0.86,0.260,73,1.64,"JR                                                "
24676,03/30/2006,"1300      ",6.09,0.83,0.410,55,1.25,"DF                                                "
24677,03/31/2006,"1130      ",6.01,0.81,0.440,55,0.97,"DF                                                "
24678,04/01/2006,"1415      ",6.03,0.77,0.460,58,1.28,"JF                                                "
24679,04/02/2006,"1320      ",6.04,0.73,0.240,50,1.00,"RP                                                "
24680,04/03/2006,"1425      ",6.04,0.76,0.600,49,0.64,"TCF                                               "
24681,04/04/2006,"1300      ",5.99,0.80,0.460,46,0.72,"DF                                                "
24682,04/05/2006,"820       ",6.03,0.72,0.450,50,0.74,"TL                                                "
24683,04/06/2006,"830       ",6.01,0.75,0.370,53,0.68,"TCF                                               "
24684,04/07/2006,"1030      ",6.03,0.76,0.430,57,0.72,"DF                                                "
24685,04/08/2006,"930       ",6.02,0.69,0.450,53,0.72,"SBK                                               "
24686,04/09/2006,"1355      ",6.02,0.79,0.400,55,0.89,"TCF                                               "
24687,04/10/2006,"1030      ",5.96,0.70,0.480,54,0.64,"TCF                                               "
24688,04/11/2006,"730       ",5.97,0.62,0.480,57,0.75,"DF                                                "
24689,04/12/2006,"1140      ",6.04,0.70,0.710,48,0.73,"TCF                                               "
24690,04/13/2006,"635       ",6.05,0.69,0.330,46,0.65,"RP                                                "
24691,04/14/2006,"1225      ",5.98,0.68,0.510,47,0.64,"TL                                                "
24692,04/15/2006,"1240      ",5.99,0.69,0.470,44,0.62,"TL                                                "
24693,04/16/2006,"1255      ",6.07,0.69,0.390,47,0.67,"TL                                                "
24694,04/17/2006,"1258      ",6.16,0.72,0.230,43,0.77,"RP                                                "
24695,04/18/2006,"1130      ",6.05,0.67,0.390,39,0.78,"sbk                                               "
24696,04/19/2006,"1400      ",6.06,0.68,0.390,49,0.89,"sbk                                               "
24697,04/20/2006,"1135      ",6.03,0.67,0.380,46,0.85,"SC                                                "
24698,04/21/2006,"845       ",6.11,0.70,0.370,47,0.80,"sbk                                               "
24699,04/22/2006,"1130      ",6.04,0.52,0.390,50,0.76,"sbk                                               "
24700,04/23/2006,"1330      ",6.01,0.74,0.390,62,0.91,"TCF                                               "
24701,04/24/2006,"1600      ",6.01,0.75,0.590,50,0.86,"DF                                                "
24702,04/25/2006,"1100      ",6.01,0.74,0.430,55,1.18,"SC                                                "
24703,04/26/2006,"730       ",5.99,0.67,0.370,52,0.78,"DF                                                "
24704,04/27/2006,"1230      ",6.01,0.75,0.350,57,1.05,"RP                                                "
24705,04/28/2006,"645       ",6.01,0.70,0.320,55,0.93,"DF                                                "
24706,04/29/2006,"1045      ",6.06,0.70,0.160,57,0.98,"sbk                                               "
24707,04/30/2006,"1055      ",5.98,0.92,0.380,74,1.97,"TCF                                               "
24708,05/01/2006,"1150      ",5.99,0.72,0.460,55,0.99,"SC                                                "
24709,05/02/2006,"1145      ",6.03,0.72,0.530,51,0.93,"DF                                                "
24710,05/03/2006,"1500      ",6.09,0.70,0.230,56,0.96,"JR                                                "
24711,05/04/2006,"1030      ",6.02,0.72,0.380,61,1.02,"TCF                                               "
24712,05/05/2006,"700       ",6.36,0.73,0.460,68,1.11,"DF                                                "
24713,05/06/2006,"1100      ",6.13,0.66,0.230,63,1.05,"SBK                                               "
24714,05/07/2006,"950       ",6.04,0.61,0.320,69,1.03,"TCF                                               "
24715,05/08/2006,"935       ",6.06,0.71,0.280,69,0.99,"SC                                                "
24716,05/09/2006,"1515      ",6.06,0.78,0.180,73,1.14,"JRR                                               "
24717,05/10/2006,"1310      ",6.05,0.88,0.470,85,1.57,"JF                                                "
24718,05/11/2006,"835       ",6.05,0.83,0.280,86,1.56,"TL                                                "
24719,05/12/2006,"1520      ",6.03,0.79,0.230,101,1.38,"JR                                                "
24720,05/13/2006,"1455      ",5.98,0.86,0.260,90,1.36,"JF                                                "
24721,05/15/2006,"1450      ",6.01,0.90,0.210,99,1.52,"SC                                                "
24722,05/16/2006,"1230      ",6.27,0.81,0.260,98,1.63,"DF                                                "
24723,05/17/2006,"1510      ",6.09,0.69,0.280,115,1.55,"JR                                                "
24724,05/18/2006,"1550      ",6.08,0.74,0.120,128,1.58,"JR                                                "
24725,05/19/2006,"1510      ",6.12,0.67,0.290,133,1.41,"JR                                                "
24726,05/20/2006,"1455      ",6.12,0.75,0.260,120,1.14,"JF                                                "
24727,05/21/2006,"1230      ",6.07,0.66,0.080,122,0.94,"TCF                                               "
24728,05/22/2006,"1340      ",6.13,0.67,0.340,131,0.93,"RH/SV                                             "
24729,05/23/2006,"1235      ",6.16,0.64,0.220,137,1.14,"DF/SC                                             "
24730,05/24/2006,"1500      ",6.08,0.67,0.320,143,1.15,"JR                                                "
24731,05/25/2006,"1310      ",6.13,0.71,0.170,137,0.93,"RH                                                "
24732,05/26/2006,"745       ",6.17,0.93,0.120,139,0.94,"SJV                                               "
24733,05/27/2006,"1300      ",6.08,0.68,0.100,153,1.12,"SBK                                               "
24734,05/28/2006,"1010      ",6.08,0.82,0.080,152,1.34,"SV                                                "
24735,05/29/2006,"900       ",6.05,0.70,0.200,150,0.74,"TCF                                               "
24736,05/30/2006,"830       ",6.10,0.86,0.210,168,1.26,"DF                                                "
24737,05/31/2006,"935       ",6.19,0.80,0.230,171,0.94,"RH                                                "
24738,06/01/2006,"715       ",6.14,0.77,0.180,174,0.87,"RH                                                "
24739,06/02/2006,"755       ",6.06,0.79,0.160,177,0.78,"DF                                                "
24740,06/03/2006,"1050      ",6.03,0.85,0.130,190,1.10,"SC                                                "
24741,06/04/2006,"1300      ",6.06,0.79,0.100,202,0.71,"TCF                                               "
24742,06/05/2006,"1240      ",6.03,0.79,0.120,201,0.77,"TCF                                               "
24743,06/06/2006,"1305      ",6.10,0.77,0.130,208,0.91,"SC                                                "
24744,06/07/2006,"645       ",6.07,0.76,0.150,204,0.77,"DF                                                "
24745,06/08/2006,"730       ",6.06,0.77,0.210,215,1.03,"RH                                                "
24746,06/09/2006,"1515      ",6.20,0.63,0.070,216,0.80,"JR                                                "
24747,06/11/2006,"1115      ",6.20,0.74,0.060,220,0.61,"SV                                                "
24748,06/12/2006,"1140      ",6.15,0.71,0.090,221,0.88,"TCF                                               "
24749,06/13/2006,"1140      ",6.23,0.91,0.100,230,0.74,"SC                                                "
24750,06/14/2006,"650       ",6.62,0.69,0.080,227,0.83,"SV                                                "
24751,06/15/2006,"1520      ",6.14,0.79,0.150,257,0.95,"JR                                                "
24752,06/16/2006,"745       ",6.14,0.98,0.130,245,1.31,"RH                                                "
24753,06/17/2006,"900       ",6.09,0.72,0.040,233,0.65,"SV                                                "
24754,06/18/2006,"1010      ",6.12,0.71,0.070,243,0.73, 
24755,06/19/2006,"720       ",6.14,0.72,0.110,250,0.77,"RH                                                "
24756,06/20/2006,"710       ",6.09,0.81,0.080,260,0.66,"SV                                                "
24757,06/21/2006,"615       ",6.08,0.76,0.190,270,0.79,"SC                                                "
24758,06/22/2006,"715       ",5.95,0.74,0.120,282,0.62,"TL                                                "
24759,06/23/2006,"655       ",6.11,0.75,0.190,300,0.60,"TL                                                "
24760,06/24/2006,"1340      ",6.03,0.75,0.240,301,0.55,"TL                                                "
24761,06/26/2006,"830       ",6.05,0.82,0.100,304,0.63,"SC                                                "
24762,06/27/2006,"740       ",6.06,0.85,0.050,282,0.55,"RH                                                "
24763,06/28/2006,"650       ",6.06,0.81,0.170,290,0.59,"sv                                                "
24764,06/29/2006,"840       ",6.08,0.73,0.100,308,0.67,"TCF                                               "
24765,06/30/2006,"1445      ",6.08,0.74,0.200,335,0.53,"JR                                                "
24766,07/01/2006,"945       ",6.29,0.78,0.070,344,0.77,"SV                                                "
24767,07/02/2006,"1030      ",5.93,0.92,0.040,431,1.26,"DF                                                "
24768,07/03/2006,"810       ",6.10,0.77,0.040,346,0.77,"SV                                                "
24769,07/04/2006,"800       ",6.09,0.81,0.080,371,0.80,"RP                                                "
24770,07/05/2006,"645       ",6.21,0.80,0.010,383,0.78,"SC/SV                                             "
24771,07/06/2006,"725       ",6.06,0.80,0.090,394,0.75,"TL                                                "
24772,07/07/2006,"745       ",6.14,0.84,0.030,417,0.77,"SV/SC                                             "
24773,07/08/2006,"830       ",6.07,0.86,0.100,410,0.78,"SV                                                "
24774,07/09/2006,"730       ",6.06,0.84,0.140,455,0.64,"SV                                                "
24775,07/10/2006,"740       ",6.03,0.82,0.090,466,0.75,"SC                                                "
24776,07/11/2006,"745       ",5.99,0.84,0.090,473,0.72,"SC                                                "
24777,07/12/2006,"745       ",6.15,0.78,0.180,473,0.65,"SC                                                "
24778,07/13/2006,"745       ",6.01,0.78,0.100,487,0.71,"sc                                                "
24779,07/14/2006,"730       ",6.06,0.88,0.140,448,0.71,"DF                                                "
24780,07/15/2006,"715       ",6.05,0.83,0.060,465,0.80,"sbk                                               "
24781,07/16/2006,"700       ",6.06,0.85,0.060,460,0.64,"TL                                                "
24782,07/17/2006,"940       ",6.05,1.04,0.060,425,1.46,"sc                                                "
24783,07/18/2006,"720       ",6.12,0.87,0.160,412,1.04,"RH                                                "
24784,07/19/2006,"1005      ",6.01,0.91,0.100,458,0.94,"TCF                                               "
24785,07/20/2006,"820       ",6.03,1.01,0.120,471,1.69,"TL                                                "
24786,07/21/2006,"1030      ",6.03,1.08,0.030,448,1.09,"DF                                                "
24787,07/23/2006,"910       ",6.12,1.25,0.060,465,1.11,"SJV                                               "
24788,07/24/2006,"1600      ",6.14,1.15,0.050,448,1.06,"sbk                                               "
24789,07/25/2006,"935       ",6.10,1.09,0.090,460,1.05,"RH                                                "
24790,07/26/2006,"720       ",6.09,1.09,0.070,458,1.12,"RH                                                "
24791,07/27/2006,"755       ",5.96,1.02,0.050,450,1.09,"TL                                                "
24792,07/28/2006,"715       ",5.99,1.02,0.080,454,1.22,"SV                                                "
24793,07/29/2006,"700       ",6.02,1.01,0.120,479,1.32,"sbk                                               "
24794,07/30/2006,"735       ",6.01,1.08,0.010,430,1.19,"SV                                                "
24795,07/31/2006,"630       ",6.07,1.05,0.090,419,1.35,"DF                                                "
24796,08/01/2006,"630       ",6.94,1.01,0.040,398,1.30,"DF                                                "
24797,08/02/2006,"815       ",6.03,0.97,0.040,392,1.44,"sbk                                               "
24798,08/03/2006,"735       ",6.05,0.99,0.050,376,1.31,"TCF                                               "
24799,08/04/2006,"830       ",5.98,0.95,0.030,357,1.69,"DF                                                "
24800,08/05/2006,"1245      ",6.12,1.01,0.040,360,1.37,"sbk                                               "
24801,08/06/2006,"740       ",6.12,1.08,0.040,327,1.17,"DF                                                "
24802,08/07/2006,"720       ",6.04,1.25,0.140,323,1.25,"SBK                                               "
24803,08/08/2006,"725       ",6.01,1.06,0.200,319,1.53,"DF                                                "
24804,08/09/2006,"825       ",6.09,1.02,0.360,301,1.24,"SBK                                               "
24805,08/10/2006,"745       ",6.10,1.06,0.050,287,1.27,"sbk                                               "
24806,08/11/2006,"740       ",6.05,1.14,0.250,274,1.48,"DF                                                "
24807,08/12/2006,"800       ",5.98,1.11,0.130,259,1.02,"sbk                                               "
24808,08/13/2006,"930       ",6.01,1.03,0.210,242,0.96,"TCF                                               "
24809,08/14/2006,"800       ",6.00,1.08,0.370,245,0.97,"DF                                                "
24810,08/15/2006,"730       ",6.04,1.08,0.190,249,1.45,"DF                                                "
24811,08/16/2006,"800       ",6.02,1.08,0.130,241,1.10,"SC                                                "
24812,08/17/2006,"800       ",6.03,1.11,0.240,232,0.99,"TCF                                               "
24813,08/18/2006,"740       ",6.02,1.08,0.200,212,0.92,"SV                                                "